Year,Month,Day,Hour,Minute,Value (Times are PST for temperature in C)
2011,08,20,00,00,14.10
2011,08,20,00,01,14.10
2011,08,20,00,02,14.10
2011,08,20,00,03,14.00
2011,08,20,00,04,14.00
2011,08,20,00,05,13.90
2011,08,20,00,06,13.90
2011,08,20,00,07,13.90
2011,08,20,00,08,13.80
2011,08,20,00,09,13.80
2011,08,20,00,10,13.80
2011,08,20,00,11,13.70
2011,08,20,00,12,13.70
2011,08,20,00,13,13.70
2011,08,20,00,14,13.70
2011,08,20,00,15,13.70
2011,08,20,00,16,13.60
2011,08,20,00,17,13.60
2011,08,20,00,18,13.60
2011,08,20,00,19,13.60
2011,08,20,00,20,13.50
2011,08,20,00,21,13.50
2011,08,20,00,22,13.50
2011,08,20,00,23,13.40
2011,08,20,00,24,13.40
2011,08,20,00,25,13.40
2011,08,20,00,26,13.40
2011,08,20,00,27,13.40
2011,08,20,00,28,13.40
2011,08,20,00,29,13.30
2011,08,20,00,30,13.30
2011,08,20,00,31,13.30
2011,08,20,00,32,13.30
2011,08,20,00,33,13.30
2011,08,20,00,34,13.30
2011,08,20,00,35,13.30
2011,08,20,00,36,13.30
2011,08,20,00,37,13.30
2011,08,20,00,38,13.30
2011,08,20,00,39,13.30
2011,08,20,00,40,13.20
2011,08,20,00,41,13.20
2011,08,20,00,42,13.20
2011,08,20,00,43,13.20
2011,08,20,00,44,13.20
2011,08,20,00,45,13.20
2011,08,20,00,46,13.10
2011,08,20,00,47,13.10
2011,08,20,00,48,13.10
2011,08,20,00,49,13.00
2011,08,20,00,50,13.00
2011,08,20,00,51,13.00
2011,08,20,00,52,12.90
2011,08,20,00,53,12.90
2011,08,20,00,54,12.90
2011,08,20,00,55,12.90
2011,08,20,00,56,12.90
2011,08,20,00,57,12.90
2011,08,20,00,58,12.80
2011,08,20,00,59,12.80
2011,08,20,01,00,12.80
2011,08,20,01,01,12.80
2011,08,20,01,02,12.80
2011,08,20,01,03,12.80
2011,08,20,01,04,12.80
2011,08,20,01,05,12.80
2011,08,20,01,06,12.80
2011,08,20,01,07,12.80
2011,08,20,01,08,12.80
2011,08,20,01,09,12.80
2011,08,20,01,10,12.80
2011,08,20,01,11,12.80
2011,08,20,01,12,12.80
2011,08,20,01,13,12.80
2011,08,20,01,14,12.80
2011,08,20,01,15,12.80
2011,08,20,01,16,12.80
2011,08,20,01,17,12.80
2011,08,20,01,18,12.80
2011,08,20,01,19,12.80
2011,08,20,01,20,12.80
2011,08,20,01,21,12.70
2011,08,20,01,22,12.70
2011,08,20,01,23,12.70
2011,08,20,01,24,12.70
2011,08,20,01,25,12.70
2011,08,20,01,26,12.60
2011,08,20,01,27,12.60
2011,08,20,01,28,12.60
2011,08,20,01,29,12.60
2011,08,20,01,30,12.60
2011,08,20,01,31,12.60
2011,08,20,01,32,12.50
2011,08,20,01,33,12.50
2011,08,20,01,34,12.50
2011,08,20,01,35,12.40
2011,08,20,01,36,12.40
2011,08,20,01,37,12.40
2011,08,20,01,38,12.40
2011,08,20,01,39,12.40
2011,08,20,01,40,12.30
2011,08,20,01,41,12.30
2011,08,20,01,42,12.30
2011,08,20,01,43,12.30
2011,08,20,01,44,12.30
2011,08,20,01,45,12.30
2011,08,20,01,46,12.20
2011,08,20,01,47,12.20
2011,08,20,01,48,12.20
2011,08,20,01,49,12.20
2011,08,20,01,50,12.20
2011,08,20,01,51,12.20
2011,08,20,01,52,12.20
2011,08,20,01,53,12.20
2011,08,20,01,54,12.20
2011,08,20,01,55,12.20
2011,08,20,01,56,12.20
2011,08,20,01,57,12.10
2011,08,20,01,58,12.10
2011,08,20,01,59,12.10
2011,08,20,02,00,12.10
2011,08,20,02,01,12.00
2011,08,20,02,02,12.00
2011,08,20,02,03,12.00
2011,08,20,02,04,12.00
2011,08,20,02,05,12.00
2011,08,20,02,06,12.00
2011,08,20,02,07,12.00
2011,08,20,02,08,12.00
2011,08,20,02,09,12.00
2011,08,20,02,10,12.00
2011,08,20,02,11,11.90
2011,08,20,02,12,11.90
2011,08,20,02,13,11.90
2011,08,20,02,14,11.90
2011,08,20,02,15,11.90
2011,08,20,02,16,11.80
2011,08,20,02,17,11.80
2011,08,20,02,18,11.80
2011,08,20,02,19,11.80
2011,08,20,02,20,11.70
2011,08,20,02,21,11.70
2011,08,20,02,22,11.70
2011,08,20,02,23,11.60
2011,08,20,02,24,11.60
2011,08,20,02,25,11.60
2011,08,20,02,26,11.60
2011,08,20,02,27,11.60
2011,08,20,02,28,11.60
2011,08,20,02,29,11.60
2011,08,20,02,30,11.60
2011,08,20,02,31,11.60
2011,08,20,02,32,11.60
2011,08,20,02,33,11.60
2011,08,20,02,34,11.60
2011,08,20,02,35,11.50
2011,08,20,02,36,11.50
2011,08,20,02,37,11.50
2011,08,20,02,38,11.50
2011,08,20,02,39,11.50
2011,08,20,02,40,11.50
2011,08,20,02,41,11.50
2011,08,20,02,42,11.50
2011,08,20,02,43,11.50
2011,08,20,02,44,11.40
2011,08,20,02,45,11.40
2011,08,20,02,46,11.40
2011,08,20,02,47,11.40
2011,08,20,02,48,11.40
2011,08,20,02,49,11.40
2011,08,20,02,50,11.40
2011,08,20,02,51,11.40
2011,08,20,02,52,11.40
2011,08,20,02,53,11.40
2011,08,20,02,54,11.40
2011,08,20,02,55,11.40
2011,08,20,02,56,11.40
2011,08,20,02,57,11.40
2011,08,20,02,58,11.30
2011,08,20,02,59,11.30
2011,08,20,03,00,11.30
2011,08,20,03,01,11.30
2011,08,20,03,02,11.30
2011,08,20,03,03,11.30
2011,08,20,03,04,11.30
2011,08,20,03,05,11.30
2011,08,20,03,06,11.30
2011,08,20,03,07,11.30
2011,08,20,03,08,11.30
2011,08,20,03,09,11.30
2011,08,20,03,10,11.30
2011,08,20,03,11,11.30
2011,08,20,03,12,11.30
2011,08,20,03,13,11.30
2011,08,20,03,14,11.30
2011,08,20,03,15,11.30
2011,08,20,03,16,11.30
2011,08,20,03,17,11.30
2011,08,20,03,18,11.30
2011,08,20,03,19,11.30
2011,08,20,03,20,11.30
2011,08,20,03,21,11.30
2011,08,20,03,22,11.30
2011,08,20,03,23,11.30
2011,08,20,03,24,11.30
2011,08,20,03,25,11.30
2011,08,20,03,26,11.20
2011,08,20,03,27,11.20
2011,08,20,03,28,11.20
2011,08,20,03,29,11.20
2011,08,20,03,30,11.20
2011,08,20,03,31,11.30
2011,08,20,03,32,11.30
2011,08,20,03,33,11.30
2011,08,20,03,34,11.30
2011,08,20,03,35,11.20
2011,08,20,03,36,11.20
2011,08,20,03,37,11.20
2011,08,20,03,38,11.20
2011,08,20,03,39,11.20
2011,08,20,03,40,11.20
2011,08,20,03,41,11.20
2011,08,20,03,42,11.10
2011,08,20,03,43,11.10
2011,08,20,03,44,11.10
2011,08,20,03,45,11.10
2011,08,20,03,46,11.10
2011,08,20,03,47,11.10
2011,08,20,03,48,11.10
2011,08,20,03,49,11.10
2011,08,20,03,50,11.10
2011,08,20,03,51,11.10
2011,08,20,03,52,11.10
2011,08,20,03,53,11.10
2011,08,20,03,54,11.10
2011,08,20,03,55,11.10
2011,08,20,03,56,11.10
2011,08,20,03,57,11.10
2011,08,20,03,58,11.00
2011,08,20,03,59,11.00
2011,08,20,04,00,11.00
2011,08,20,04,01,11.00
2011,08,20,04,02,11.00
2011,08,20,04,03,10.90
2011,08,20,04,04,10.90
2011,08,20,04,05,10.90
2011,08,20,04,06,10.90
2011,08,20,04,07,10.90
2011,08,20,04,08,11.00
2011,08,20,04,09,11.00
2011,08,20,04,10,11.00
2011,08,20,04,11,10.90
2011,08,20,04,12,10.90
2011,08,20,04,13,10.90
2011,08,20,04,14,10.90
2011,08,20,04,15,10.90
2011,08,20,04,16,10.90
2011,08,20,04,17,10.90
2011,08,20,04,18,10.90
2011,08,20,04,19,10.80
2011,08,20,04,20,10.80
2011,08,20,04,21,10.80
2011,08,20,04,22,10.80
2011,08,20,04,23,10.80
2011,08,20,04,24,10.80
2011,08,20,04,25,10.70
2011,08,20,04,26,10.70
2011,08,20,04,27,10.70
2011,08,20,04,28,10.70
2011,08,20,04,29,10.70
2011,08,20,04,30,10.70
2011,08,20,04,31,10.70
2011,08,20,04,32,10.70
2011,08,20,04,33,10.70
2011,08,20,04,34,10.70
2011,08,20,04,35,10.70
2011,08,20,04,36,10.70
2011,08,20,04,37,10.70
2011,08,20,04,38,10.70
2011,08,20,04,39,10.70
2011,08,20,04,40,10.70
2011,08,20,04,41,10.60
2011,08,20,04,42,10.60
2011,08,20,04,43,10.60
2011,08,20,04,44,10.60
2011,08,20,04,45,10.60
2011,08,20,04,46,10.60
2011,08,20,04,47,10.60
2011,08,20,04,48,10.60
2011,08,20,04,49,10.60
2011,08,20,04,50,10.60
2011,08,20,04,51,10.50
2011,08,20,04,52,10.50
2011,08,20,04,53,10.50
2011,08,20,04,54,10.50
2011,08,20,04,55,10.50
2011,08,20,04,56,10.50
2011,08,20,04,57,10.40
2011,08,20,04,58,10.40
2011,08,20,04,59,10.40
2011,08,20,05,00,10.40
2011,08,20,05,01,10.40
2011,08,20,05,02,10.40
2011,08,20,05,03,10.40
2011,08,20,05,04,10.40
2011,08,20,05,05,10.40
2011,08,20,05,06,10.40
2011,08,20,05,07,10.40
2011,08,20,05,08,10.40
2011,08,20,05,09,10.40
2011,08,20,05,10,10.30
2011,08,20,05,11,10.30
2011,08,20,05,12,10.30
2011,08,20,05,13,10.30
2011,08,20,05,14,10.30
2011,08,20,05,15,10.30
2011,08,20,05,16,10.30
2011,08,20,05,17,10.30
2011,08,20,05,18,10.30
2011,08,20,05,19,10.30
2011,08,20,05,20,10.30
2011,08,20,05,21,10.30
2011,08,20,05,22,10.30
2011,08,20,05,23,10.30
2011,08,20,05,24,10.30
2011,08,20,05,25,10.30
2011,08,20,05,26,10.30
2011,08,20,05,27,10.20
2011,08,20,05,28,10.20
2011,08,20,05,29,10.20
2011,08,20,05,30,10.20
2011,08,20,05,31,10.20
2011,08,20,05,32,10.20
2011,08,20,05,33,10.20
2011,08,20,05,34,10.20
2011,08,20,05,35,10.20
2011,08,20,05,36,10.20
2011,08,20,05,37,10.20
2011,08,20,05,38,10.20
2011,08,20,05,39,10.20
2011,08,20,05,40,10.20
2011,08,20,05,41,10.20
2011,08,20,05,42,10.20
2011,08,20,05,43,10.20
2011,08,20,05,44,10.20
2011,08,20,05,45,10.20
2011,08,20,05,46,10.10
2011,08,20,05,47,10.10
2011,08,20,05,48,10.10
2011,08,20,05,49,10.10
2011,08,20,05,50,10.10
2011,08,20,05,51,10.10
2011,08,20,05,52,10.10
2011,08,20,05,53,10.10
2011,08,20,05,54,10.10
2011,08,20,05,55,10.20
2011,08,20,05,56,10.20
2011,08,20,05,57,10.20
2011,08,20,05,58,10.10
2011,08,20,05,59,10.10
2011,08,20,06,00,10.10
2011,08,20,06,01,10.10
2011,08,20,06,02,10.00
2011,08,20,06,03,10.00
2011,08,20,06,04,10.00
2011,08,20,06,05,10.00
2011,08,20,06,06,10.00
2011,08,20,06,07,10.00
2011,08,20,06,08,10.00
2011,08,20,06,09,10.00
2011,08,20,06,10,10.00
2011,08,20,06,11,10.00
2011,08,20,06,12,10.00
2011,08,20,06,13,10.00
2011,08,20,06,14,10.00
2011,08,20,06,15,10.00
2011,08,20,06,16,10.00
2011,08,20,06,17,10.00
2011,08,20,06,18,9.90
2011,08,20,06,19,9.90
2011,08,20,06,20,9.90
2011,08,20,06,21,9.90
2011,08,20,06,22,9.90
2011,08,20,06,23,10.00
2011,08,20,06,24,10.00
2011,08,20,06,25,9.90
2011,08,20,06,26,9.90
2011,08,20,06,27,9.90
2011,08,20,06,28,9.90
2011,08,20,06,29,9.90
2011,08,20,06,30,9.90
2011,08,20,06,31,9.90
2011,08,20,06,32,9.90
2011,08,20,06,33,9.90
2011,08,20,06,34,9.90
2011,08,20,06,35,9.90
2011,08,20,06,36,9.90
2011,08,20,06,37,9.90
2011,08,20,06,38,9.90
2011,08,20,06,39,9.90
2011,08,20,06,40,9.90
2011,08,20,06,41,9.90
2011,08,20,06,42,10.00
2011,08,20,06,43,9.90
2011,08,20,06,44,9.90
2011,08,20,06,45,9.90
2011,08,20,06,46,9.90
2011,08,20,06,47,9.90
2011,08,20,06,48,9.90
2011,08,20,06,49,9.90
2011,08,20,06,50,9.90
2011,08,20,06,51,9.90
2011,08,20,06,52,9.90
2011,08,20,06,53,9.90
2011,08,20,06,54,9.90
2011,08,20,06,55,10.00
2011,08,20,06,56,10.00
2011,08,20,06,57,10.00
2011,08,20,06,58,10.00
2011,08,20,06,59,10.00
2011,08,20,07,00,10.00
2011,08,20,07,01,10.00
2011,08,20,07,02,10.00
2011,08,20,07,03,10.00
2011,08,20,07,04,10.00
2011,08,20,07,05,10.00
2011,08,20,07,06,10.10
2011,08,20,07,07,10.10
2011,08,20,07,08,10.10
2011,08,20,07,09,10.10
2011,08,20,07,10,10.20
2011,08,20,07,11,10.20
2011,08,20,07,12,10.20
2011,08,20,07,13,10.20
2011,08,20,07,14,10.20
2011,08,20,07,15,10.20
2011,08,20,07,16,10.20
2011,08,20,07,17,10.30
2011,08,20,07,18,10.30
2011,08,20,07,19,10.30
2011,08,20,07,20,10.30
2011,08,20,07,21,10.30
2011,08,20,07,22,10.30
2011,08,20,07,23,10.30
2011,08,20,07,24,10.40
2011,08,20,07,25,10.40
2011,08,20,07,26,10.40
2011,08,20,07,27,10.40
2011,08,20,07,28,10.40
2011,08,20,07,29,10.50
2011,08,20,07,30,10.60
2011,08,20,07,31,10.60
2011,08,20,07,32,10.70
2011,08,20,07,33,10.70
2011,08,20,07,34,10.70
2011,08,20,07,35,10.70
2011,08,20,07,36,10.70
2011,08,20,07,37,10.80
2011,08,20,07,38,10.80
2011,08,20,07,39,10.90
2011,08,20,07,40,10.90
2011,08,20,07,41,10.90
2011,08,20,07,42,11.00
2011,08,20,07,43,11.00
2011,08,20,07,44,11.10
2011,08,20,07,45,11.10
2011,08,20,07,46,11.20
2011,08,20,07,47,11.20
2011,08,20,07,48,11.20
2011,08,20,07,49,11.30
2011,08,20,07,50,11.30
2011,08,20,07,51,11.30
2011,08,20,07,52,11.30
2011,08,20,07,53,11.40
2011,08,20,07,54,11.40
2011,08,20,07,55,11.40
2011,08,20,07,56,11.50
2011,08,20,07,57,11.60
2011,08,20,07,58,11.60
2011,08,20,07,59,11.70
2011,08,20,08,00,11.70
2011,08,20,08,01,11.80
2011,08,20,08,02,11.80
2011,08,20,08,03,11.90
2011,08,20,08,04,12.00
2011,08,20,08,05,12.10
2011,08,20,08,06,12.30
2011,08,20,08,07,12.40
2011,08,20,08,08,12.50
2011,08,20,08,09,12.70
2011,08,20,08,10,12.80
2011,08,20,08,11,13.00
2011,08,20,08,12,13.10
2011,08,20,08,13,13.30
2011,08,20,08,14,13.50
2011,08,20,08,15,13.70
2011,08,20,08,16,13.80
2011,08,20,08,17,14.00
2011,08,20,08,18,14.20
2011,08,20,08,19,14.30
2011,08,20,08,20,14.50
2011,08,20,08,21,14.60
2011,08,20,08,22,14.70
2011,08,20,08,23,14.80
2011,08,20,08,24,14.90
2011,08,20,08,25,14.90
2011,08,20,08,26,15.00
2011,08,20,08,27,15.00
2011,08,20,08,28,15.10
2011,08,20,08,29,15.10
2011,08,20,08,30,15.20
2011,08,20,08,31,15.30
2011,08,20,08,32,15.30
2011,08,20,08,33,15.40
2011,08,20,08,34,15.50
2011,08,20,08,35,15.50
2011,08,20,08,36,15.60
2011,08,20,08,37,15.60
2011,08,20,08,38,15.70
2011,08,20,08,39,15.80
2011,08,20,08,40,15.80
2011,08,20,08,41,15.80
2011,08,20,08,42,15.90
2011,08,20,08,43,16.00
2011,08,20,08,44,16.00
2011,08,20,08,45,16.10
2011,08,20,08,46,16.10
2011,08,20,08,47,16.20
2011,08,20,08,48,16.30
2011,08,20,08,49,16.40
2011,08,20,08,50,16.50
2011,08,20,08,51,16.60
2011,08,20,08,52,16.70
2011,08,20,08,53,16.80
2011,08,20,08,54,16.90
2011,08,20,08,55,17.00
2011,08,20,08,56,17.10
2011,08,20,08,57,17.20
2011,08,20,08,58,17.30
2011,08,20,08,59,17.40
2011,08,20,09,00,17.50
2011,08,20,09,01,17.60
2011,08,20,09,02,17.70
2011,08,20,09,03,17.80
2011,08,20,09,04,17.90
2011,08,20,09,05,18.00
2011,08,20,09,06,18.00
2011,08,20,09,07,18.10
2011,08,20,09,08,18.20
2011,08,20,09,09,18.30
2011,08,20,09,10,18.40
2011,08,20,09,11,18.50
2011,08,20,09,12,18.60
2011,08,20,09,13,18.60
2011,08,20,09,14,18.70
2011,08,20,09,15,18.80
2011,08,20,09,16,18.90
2011,08,20,09,17,19.00
2011,08,20,09,18,19.10
2011,08,20,09,19,19.20
2011,08,20,09,20,19.30
2011,08,20,09,21,19.40
2011,08,20,09,22,19.40
2011,08,20,09,23,19.50
2011,08,20,09,24,19.60
2011,08,20,09,25,19.70
2011,08,20,09,26,19.80
2011,08,20,09,27,19.80
2011,08,20,09,28,19.80
2011,08,20,09,29,19.90
2011,08,20,09,30,19.90
2011,08,20,09,31,20.00
2011,08,20,09,32,20.00
2011,08,20,09,33,20.10
2011,08,20,09,34,20.20
2011,08,20,09,35,20.30
2011,08,20,09,36,20.40
2011,08,20,09,37,20.50
2011,08,20,09,38,20.60
2011,08,20,09,39,20.70
2011,08,20,09,40,20.80
2011,08,20,09,41,20.80
2011,08,20,09,42,20.80
2011,08,20,09,43,20.90
2011,08,20,09,44,21.00
2011,08,20,09,45,21.10
2011,08,20,09,46,21.20
2011,08,20,09,47,21.30
2011,08,20,09,48,21.40
2011,08,20,09,49,21.60
2011,08,20,09,50,21.70
2011,08,20,09,51,21.80
2011,08,20,09,52,21.90
2011,08,20,09,53,22.00
2011,08,20,09,54,22.10
2011,08,20,09,55,22.20
2011,08,20,09,56,22.30
2011,08,20,09,57,22.40
2011,08,20,09,58,22.50
2011,08,20,09,59,22.50
2011,08,20,10,00,22.60
2011,08,20,10,01,22.60
2011,08,20,10,02,22.60
2011,08,20,10,03,22.60
2011,08,20,10,04,22.50
2011,08,20,10,05,22.50
2011,08,20,10,06,22.50
2011,08,20,10,07,22.60
2011,08,20,10,08,22.60
2011,08,20,10,09,22.60
2011,08,20,10,10,22.70
2011,08,20,10,11,22.70
2011,08,20,10,12,22.80
2011,08,20,10,13,22.80
2011,08,20,10,14,22.80
2011,08,20,10,15,22.80
2011,08,20,10,16,22.80
2011,08,20,10,17,22.80
2011,08,20,10,18,22.80
2011,08,20,10,19,22.90
2011,08,20,10,20,22.90
2011,08,20,10,21,23.00
2011,08,20,10,22,23.00
2011,08,20,10,23,23.10
2011,08,20,10,24,23.10
2011,08,20,10,25,23.10
2011,08,20,10,26,23.20
2011,08,20,10,27,23.20
2011,08,20,10,28,23.30
2011,08,20,10,29,23.30
2011,08,20,10,30,23.30
2011,08,20,10,31,23.30
2011,08,20,10,32,23.40
2011,08,20,10,33,23.40
2011,08,20,10,34,23.40
2011,08,20,10,35,23.50
2011,08,20,10,36,23.50
2011,08,20,10,37,23.60
2011,08,20,10,38,23.60
2011,08,20,10,39,23.60
2011,08,20,10,40,23.70
2011,08,20,10,41,23.70
2011,08,20,10,42,23.70
2011,08,20,10,43,23.70
2011,08,20,10,44,23.80
2011,08,20,10,45,23.80
2011,08,20,10,46,23.90
2011,08,20,10,47,23.90
2011,08,20,10,48,23.90
2011,08,20,10,49,23.90
2011,08,20,10,50,23.90
2011,08,20,10,51,23.90
2011,08,20,10,52,23.90
2011,08,20,10,53,23.80
2011,08,20,10,54,23.80
2011,08,20,10,55,23.80
2011,08,20,10,56,23.90
2011,08,20,10,57,23.90
2011,08,20,10,58,23.80
2011,08,20,10,59,23.80
2011,08,20,11,00,23.80
2011,08,20,11,01,23.80
2011,08,20,11,02,23.80
2011,08,20,11,03,23.80
2011,08,20,11,04,23.80
2011,08,20,11,05,23.80
2011,08,20,11,06,23.80
2011,08,20,11,07,23.80
2011,08,20,11,08,23.70
2011,08,20,11,09,23.70
2011,08,20,11,10,23.70
2011,08,20,11,11,23.70
2011,08,20,11,12,23.70
2011,08,20,11,13,23.60
2011,08,20,11,14,23.50
2011,08,20,11,15,23.50
2011,08,20,11,16,23.50
2011,08,20,11,17,23.50
2011,08,20,11,18,23.60
2011,08,20,11,19,23.60
2011,08,20,11,20,23.70
2011,08,20,11,21,23.80
2011,08,20,11,22,23.90
2011,08,20,11,23,24.00
2011,08,20,11,24,24.10
2011,08,20,11,25,24.20
2011,08,20,11,26,24.30
2011,08,20,11,27,24.40
2011,08,20,11,28,24.40
2011,08,20,11,29,24.30
2011,08,20,11,30,24.30
2011,08,20,11,31,24.30
2011,08,20,11,32,24.30
2011,08,20,11,33,24.30
2011,08,20,11,34,24.30
2011,08,20,11,35,24.20
2011,08,20,11,36,24.20
2011,08,20,11,37,24.20
2011,08,20,11,38,24.30
2011,08,20,11,39,24.40
2011,08,20,11,40,24.60
2011,08,20,11,41,24.70
2011,08,20,11,42,24.80
2011,08,20,11,43,25.00
2011,08,20,11,44,25.10
2011,08,20,11,45,25.20
2011,08,20,11,46,25.30
2011,08,20,11,47,25.30
2011,08,20,11,48,25.30
2011,08,20,11,49,25.40
2011,08,20,11,50,25.40
2011,08,20,11,51,25.40
2011,08,20,11,52,25.40
2011,08,20,11,53,25.40
2011,08,20,11,54,25.30
2011,08,20,11,55,25.20
2011,08,20,11,56,25.10
2011,08,20,11,57,25.00
2011,08,20,11,58,25.00
2011,08,20,11,59,24.90
2011,08,20,12,00,24.90
2011,08,20,12,01,24.90
2011,08,20,12,02,24.90
2011,08,20,12,03,24.90
2011,08,20,12,04,24.90
2011,08,20,12,05,24.90
2011,08,20,12,06,24.90
2011,08,20,12,07,24.90
2011,08,20,12,08,24.90
2011,08,20,12,09,25.00
2011,08,20,12,10,25.00
2011,08,20,12,11,25.10
2011,08,20,12,12,25.20
2011,08,20,12,13,25.20
2011,08,20,12,14,25.30
2011,08,20,12,15,25.30
2011,08,20,12,16,25.30
2011,08,20,12,17,25.20
2011,08,20,12,18,25.20
2011,08,20,12,19,25.30
2011,08,20,12,20,25.30
2011,08,20,12,21,25.40
2011,08,20,12,22,25.50
2011,08,20,12,23,25.50
2011,08,20,12,24,25.70
2011,08,20,12,25,25.70
2011,08,20,12,26,25.80
2011,08,20,12,27,25.80
2011,08,20,12,28,25.80
2011,08,20,12,29,25.90
2011,08,20,12,30,26.00
2011,08,20,12,31,26.10
2011,08,20,12,32,26.10
2011,08,20,12,33,26.20
2011,08,20,12,34,26.20
2011,08,20,12,35,26.30
2011,08,20,12,36,26.30
2011,08,20,12,37,26.30
2011,08,20,12,38,26.30
2011,08,20,12,39,26.30
2011,08,20,12,40,26.20
2011,08,20,12,41,26.20
2011,08,20,12,42,26.10
2011,08,20,12,43,26.10
2011,08,20,12,44,26.10
2011,08,20,12,45,26.10
2011,08,20,12,46,26.10
2011,08,20,12,47,26.10
2011,08,20,12,48,26.10
2011,08,20,12,49,26.00
2011,08,20,12,50,26.00
2011,08,20,12,51,25.90
2011,08,20,12,52,26.00
2011,08,20,12,53,26.00
2011,08,20,12,54,26.20
2011,08,20,12,55,26.30
2011,08,20,12,56,26.40
2011,08,20,12,57,26.50
2011,08,20,12,58,26.50
2011,08,20,12,59,26.60
2011,08,20,13,00,26.60
2011,08,20,13,01,26.50
2011,08,20,13,02,26.60
2011,08,20,13,03,26.70
2011,08,20,13,04,26.80
2011,08,20,13,05,26.90
2011,08,20,13,06,27.00
2011,08,20,13,07,27.10
2011,08,20,13,08,27.00
2011,08,20,13,09,26.90
2011,08,20,13,10,26.80
2011,08,20,13,11,26.70
2011,08,20,13,12,26.60
2011,08,20,13,13,26.40
2011,08,20,13,14,26.30
2011,08,20,13,15,26.20
2011,08,20,13,16,26.10
2011,08,20,13,17,26.10
2011,08,20,13,18,26.20
2011,08,20,13,19,26.20
2011,08,20,13,20,26.30
2011,08,20,13,21,26.40
2011,08,20,13,22,26.40
2011,08,20,13,23,26.40
2011,08,20,13,24,26.30
2011,08,20,13,25,26.30
2011,08,20,13,26,26.20
2011,08,20,13,27,26.20
2011,08,20,13,28,26.20
2011,08,20,13,29,26.30
2011,08,20,13,30,26.40
2011,08,20,13,31,26.40
2011,08,20,13,32,26.50
2011,08,20,13,33,26.50
2011,08,20,13,34,26.60
2011,08,20,13,35,26.60
2011,08,20,13,36,26.60
2011,08,20,13,37,26.60
2011,08,20,13,38,26.60
2011,08,20,13,39,26.70
2011,08,20,13,40,26.70
2011,08,20,13,41,26.50
2011,08,20,13,42,26.40
2011,08,20,13,43,26.40
2011,08,20,13,44,26.40
2011,08,20,13,45,26.50
2011,08,20,13,46,26.60
2011,08,20,13,47,26.70
2011,08,20,13,48,26.70
2011,08,20,13,49,26.70
2011,08,20,13,50,26.70
2011,08,20,13,51,26.50
2011,08,20,13,52,26.40
2011,08,20,13,53,26.30
2011,08,20,13,54,26.20
2011,08,20,13,55,26.20
2011,08,20,13,56,26.30
2011,08,20,13,57,26.30
2011,08,20,13,58,26.30
2011,08,20,13,59,26.30
2011,08,20,14,00,26.30
2011,08,20,14,01,26.40
2011,08,20,14,02,26.50
2011,08,20,14,03,26.60
2011,08,20,14,04,26.80
2011,08,20,14,05,26.90
2011,08,20,14,06,27.00
2011,08,20,14,07,27.10
2011,08,20,14,08,27.20
2011,08,20,14,09,27.20
2011,08,20,14,10,27.10
2011,08,20,14,11,26.80
2011,08,20,14,12,26.70
2011,08,20,14,13,26.60
2011,08,20,14,14,26.50
2011,08,20,14,15,26.40
2011,08,20,14,16,26.20
2011,08,20,14,17,26.10
2011,08,20,14,18,26.00
2011,08,20,14,19,25.90
2011,08,20,14,20,25.80
2011,08,20,14,21,25.70
2011,08,20,14,22,25.60
2011,08,20,14,23,25.50
2011,08,20,14,24,25.60
2011,08,20,14,25,25.60
2011,08,20,14,26,25.70
2011,08,20,14,27,25.70
2011,08,20,14,28,25.60
2011,08,20,14,29,25.50
2011,08,20,14,30,25.40
2011,08,20,14,31,25.30
2011,08,20,14,32,25.40
2011,08,20,14,33,25.50
2011,08,20,14,34,25.50
2011,08,20,14,35,25.50
2011,08,20,14,36,25.50
2011,08,20,14,37,25.40
2011,08,20,14,38,25.40
2011,08,20,14,39,25.40
2011,08,20,14,40,25.40
2011,08,20,14,41,25.40
2011,08,20,14,42,25.50
2011,08,20,14,43,25.50
2011,08,20,14,44,25.40
2011,08,20,14,45,25.30
2011,08,20,14,46,25.30
2011,08,20,14,47,25.30
2011,08,20,14,48,25.40
2011,08,20,14,49,25.40
2011,08,20,14,50,25.40
2011,08,20,14,51,25.40
2011,08,20,14,52,25.40
2011,08,20,14,53,25.40
2011,08,20,14,54,25.50
2011,08,20,14,55,25.60
2011,08,20,14,56,25.70
2011,08,20,14,57,25.80
2011,08,20,14,58,25.80
2011,08,20,14,59,25.80
2011,08,20,15,00,25.80
2011,08,20,15,01,25.90
2011,08,20,15,02,25.90
2011,08,20,15,03,25.90
2011,08,20,15,04,25.80
2011,08,20,15,05,25.80
2011,08,20,15,06,25.80
2011,08,20,15,07,25.80
2011,08,20,15,08,25.80
2011,08,20,15,09,25.80
2011,08,20,15,10,25.80
2011,08,20,15,11,25.80
2011,08,20,15,12,25.80
2011,08,20,15,13,26.00
2011,08,20,15,14,26.10
2011,08,20,15,15,26.00
2011,08,20,15,16,26.00
2011,08,20,15,17,26.00
2011,08,20,15,18,26.10
2011,08,20,15,19,26.10
2011,08,20,15,20,26.20
2011,08,20,15,21,26.30
2011,08,20,15,22,26.30
2011,08,20,15,23,26.30
2011,08,20,15,24,26.30
2011,08,20,15,25,26.30
2011,08,20,15,26,26.20
2011,08,20,15,27,26.20
2011,08,20,15,28,26.20
2011,08,20,15,29,26.10
2011,08,20,15,30,26.10
2011,08,20,15,31,26.00
2011,08,20,15,32,26.00
2011,08,20,15,33,26.00
2011,08,20,15,34,26.10
2011,08,20,15,35,26.20
2011,08,20,15,36,26.50
2011,08,20,15,37,26.60
2011,08,20,15,38,26.70
2011,08,20,15,39,26.70
2011,08,20,15,40,26.80
2011,08,20,15,41,26.80
2011,08,20,15,42,26.70
2011,08,20,15,43,26.70
2011,08,20,15,44,26.60
2011,08,20,15,45,26.70
2011,08,20,15,46,26.70
2011,08,20,15,47,26.80
2011,08,20,15,48,26.80
2011,08,20,15,49,26.90
2011,08,20,15,50,27.00
2011,08,20,15,51,27.10
2011,08,20,15,52,27.20
2011,08,20,15,53,27.20
2011,08,20,15,54,27.20
2011,08,20,15,55,27.20
2011,08,20,15,56,27.20
2011,08,20,15,57,27.10
2011,08,20,15,58,27.00
2011,08,20,15,59,26.90
2011,08,20,16,00,27.00
2011,08,20,16,01,27.00
2011,08,20,16,02,27.00
2011,08,20,16,03,27.00
2011,08,20,16,04,27.00
2011,08,20,16,05,27.10
2011,08,20,16,06,27.00
2011,08,20,16,07,27.00
2011,08,20,16,08,26.90
2011,08,20,16,09,26.80
2011,08,20,16,10,26.80
2011,08,20,16,11,26.70
2011,08,20,16,12,26.70
2011,08,20,16,13,26.70
2011,08,20,16,14,26.70
2011,08,20,16,15,26.60
2011,08,20,16,16,26.60
2011,08,20,16,17,26.60
2011,08,20,16,18,26.70
2011,08,20,16,19,26.70
2011,08,20,16,20,26.80
2011,08,20,16,21,26.90
2011,08,20,16,22,27.00
2011,08,20,16,23,27.00
2011,08,20,16,24,26.90
2011,08,20,16,25,26.80
2011,08,20,16,26,26.70
2011,08,20,16,27,26.70
2011,08,20,16,28,26.70
2011,08,20,16,29,26.70
2011,08,20,16,30,26.80
2011,08,20,16,31,26.90
2011,08,20,16,32,27.00
2011,08,20,16,33,27.20
2011,08,20,16,34,27.40
2011,08,20,16,35,27.50
2011,08,20,16,36,27.50
2011,08,20,16,37,27.50
2011,08,20,16,38,27.40
2011,08,20,16,39,27.30
2011,08,20,16,40,27.20
2011,08,20,16,41,27.10
2011,08,20,16,42,27.10
2011,08,20,16,43,27.10
2011,08,20,16,44,27.20
2011,08,20,16,45,27.30
2011,08,20,16,46,27.40
2011,08,20,16,47,27.50
2011,08,20,16,48,27.50
2011,08,20,16,49,27.50
2011,08,20,16,50,27.40
2011,08,20,16,51,27.40
2011,08,20,16,52,27.50
2011,08,20,16,53,27.50
2011,08,20,16,54,27.60
2011,08,20,16,55,27.60
2011,08,20,16,56,27.50
2011,08,20,16,57,27.40
2011,08,20,16,58,27.30
2011,08,20,16,59,27.30
2011,08,20,17,00,27.30
2011,08,20,17,01,27.40
2011,08,20,17,02,27.40
2011,08,20,17,03,27.40
2011,08,20,17,04,27.50
2011,08,20,17,05,27.60
2011,08,20,17,06,27.70
2011,08,20,17,07,27.80
2011,08,20,17,08,27.80
2011,08,20,17,09,27.90
2011,08,20,17,10,27.90
2011,08,20,17,11,27.90
2011,08,20,17,12,27.80
2011,08,20,17,13,27.80
2011,08,20,17,14,27.70
2011,08,20,17,15,27.60
2011,08,20,17,16,27.60
2011,08,20,17,17,27.60
2011,08,20,17,18,27.60
2011,08,20,17,19,27.50
2011,08,20,17,20,27.50